User: anonymous   Login
Location: ?ejeti?ky
(50.4060°N, 14.9016°E)
Time: 03:15:50
(UTC+00:00)
Language:

SL-08 R/B - Orbit

View from above orbital plane
View from above orbital plane
View from above satellite
View from above satellite

Ground track
Ground track

The orbit data is extracted from the following two-line orbital elements,

1 27561U 02054C   20221.89487984 +.00000060 +00000-0 +24722-4 0  9993
2 27561 098.4205 009.2081 0045198 229.9542 129.7686 14.55819822939321
Epoch (UTC): 08 August 2020 21:28:37
Eccentricity: 0.0045198
inclination: 98.4205°
perigee height: 674 km
apogee height: 739 km
right ascension of ascending node: 9.2081°
argument of perigee: 229.9542°
revolutions per day: 14.55819822
mean anomaly at epoch: 129.7686°
orbit number at epoch: 93932

The dashed part of the orbit path shows where the satellite is in the earth's shadow,  

DLR